User: anonymous   Login
Location: B?jaj?g
(11.7167°N, 92.6667°E)
Time: 21:11:47
(UTC+00:00)
Language:

Ariane H10+ - Orbit

View from above orbital plane
View from above orbital plane
View from above satellite
View from above satellite

Ground track
Ground track

The orbit data is extracted from the following two-line orbital elements,

1 23538U 95016C   20331.80624126  .00001837  00000-0  55109-3 0  9992
2 23538   6.3535 237.1527 6438273 290.0515  14.5039  3.38763847254087
Epoch (UTC): 26 November 2020 19:20:59
Eccentricity: 0.6438273
inclination: 6.3535°
perigee height: 292 km
apogee height: 24406 km
right ascension of ascending node: 237.1527°
argument of perigee: 290.0515°
revolutions per day: 3.38763847
mean anomaly at epoch: 14.5039°
orbit number at epoch: 25408

The dashed part of the orbit path shows where the satellite is in the earth's shadow,  

DLR